| time (UTC) | temp F | wind direction | speed MPH | gust MPH | rain 1hr in | rain 24hr in | rain mn in | humidity % | barometer mb |
| 20260505111549 | 59 | 141 | 0.0 | 3.0 | 0.00 | 1.21 | 0.01 | 82 | 1008.9 |
| 20260505101552 | 56 | 153 | 0.0 | 0.0 | 0.00 | 1.21 | 0.01 | 86 | 1008.5 |
| 20260505100044 | 56 | 153 | 0.0 | 0.0 | 0.00 | 1.21 | 0.01 | 85 | 1008.5 |
| 20260505094543 | 56 | 153 | 0.0 | 0.0 | 0.00 | 1.21 | 0.01 | 85 | 1008.4 |
| 20260505093044 | 57 | 153 | 0.0 | 0.0 | 0.00 | 1.21 | 0.01 | 84 | 1008.4 |
| 20260505091550 | 57 | 153 | 0.0 | 0.0 | 0.00 | 1.21 | 0.01 | 82 | 1008.5 |
| 20260505090041 | 57 | 153 | 0.0 | 0.0 | 0.00 | 1.21 | 0.01 | 81 | 1008.3 |
| 20260505084539 | 58 | 153 | 0.0 | 0.0 | 0.00 | 1.21 | 0.01 | 80 | 1008.3 |
| 20260505083038 | 58 | 153 | 0.0 | 0.0 | 0.00 | 1.21 | 0.01 | 80 | 1008.1 |
| 20260505081538 | 58 | 153 | 0.0 | 0.0 | 0.00 | 1.21 | 0.01 | 81 | 1008.2 |
| 20260505080039 | 59 | 156 | 0.0 | 0.0 | 0.00 | 1.21 | 0.01 | 79 | 1008.3 |
| 20260505074537 | 59 | 156 | 0.0 | 1.0 | 0.00 | 1.21 | 0.01 | 78 | 1008.0 |
| 20260505073042 | 59 | 157 | 0.0 | 2.0 | 0.00 | 1.21 | 0.01 | 78 | 1007.8 |
| 20260505071543 | 58 | 211 | 0.0 | 1.0 | 0.00 | 1.21 | 0.01 | 78 | 1007.9 |
| 20260505070030 | 57 | 211 | 0.0 | 0.0 | 0.00 | 1.21 | 0.01 | 80 | 1008.5 |
| 20260505064528 | 57 | 211 | 0.0 | 0.0 | 0.00 | 1.21 | 0.01 | 80 | 1008.9 |
| 20260505063027 | 57 | 211 | 0.0 | 0.0 | 0.00 | 1.21 | 0.01 | 80 | 1008.9 |
| 20260505061525 | 58 | 211 | 0.0 | 0.0 | 0.01 | 1.21 | 0.01 | 80 | 1009.1 |
| 20260505060040 | 58 | 211 | 0.0 | 0.0 | 0.01 | 1.21 | 0.01 | 79 | 1009.3 |
| 20260505054520 | 58 | 211 | 0.0 | 0.0 | 0.01 | 2.66 | 0.01 | 78 | 1009.4 |
| 20260505053019 | 59 | 211 | 0.0 | 0.0 | 0.01 | 2.66 | 0.01 | 76 | 1009.3 |
| 20260505051521 | 59 | 211 | 0.0 | 0.0 | 0.00 | 2.65 | 0.00 | 75 | 1009.3 |
| 20260505041511 | 64 | 211 | 0.0 | 0.0 | 0.00 | 1.05 | 2.65 | 67 | 1009.1 |
| 20260505040010 | 65 | 211 | 0.0 | 0.0 | 0.00 | 1.05 | 2.65 | 64 | 1009.1 |
| 20260505034509 | 67 | 211 | 0.0 | 1.0 | 0.00 | 1.06 | 2.65 | 61 | 1009.0 |
| 20260505033012 | 67 | 209 | 0.0 | 2.0 | 0.00 | 1.06 | 2.65 | 58 | 1008.9 |
| 20260505031508 | 68 | 183 | 0.0 | 5.0 | 0.00 | 1.06 | 2.65 | 58 | 1008.8 |
| 20260505030008 | 68 | 126 | 0.0 | 2.0 | 0.00 | 1.06 | 2.65 | 58 | 1008.7 |
| 20260505024511 | 68 | 154 | 0.0 | 5.0 | 0.00 | 1.06 | 2.65 | 58 | 1008.6 |
| 20260505023017 | 68 | 113 | 0.0 | 1.0 | 0.00 | 1.06 | 2.65 | 57 | 1008.5 |
| 20260505021512 | 69 | 113 | 0.0 | 2.0 | 0.00 | 1.06 | 2.65 | 56 | 1008.4 |
| 20260505020006 | 69 | 101 | 0.0 | 2.0 | 0.00 | 1.06 | 2.65 | 55 | 1008.2 |
| 20260505014512 | 70 | 101 | 0.0 | 3.0 | 0.00 | 1.06 | 2.65 | 54 | 1008.1 |
| 20260505013004 | 71 | 117 | 0.0 | 2.0 | 0.00 | 1.06 | 2.65 | 53 | 1008.0 |
| 20260505011503 | 72 | 117 | 0.0 | 3.0 | 0.00 | 1.06 | 2.65 | 51 | 1008.1 |
| 20260505010004 | 72 | 118 | 1.0 | 6.0 | 0.00 | 1.06 | 2.65 | 51 | 1008.1 |
| 20260505004503 | 73 | 167 | 0.0 | 3.0 | 0.00 | 1.06 | 2.65 | 51 | 1008.1 |
| 20260505003002 | 73 | 159 | 0.0 | 1.0 | 0.00 | 1.06 | 2.65 | 50 | 1008.1 |
| 20260505001501 | 74 | 159 | 0.0 | 2.0 | 0.00 | 1.06 | 2.65 | 50 | 1008.1 |
| 20260505000108 | 75 | 159 | 0.0 | 2.0 | 0.00 | 1.06 | 2.65 | 49 | 1008.1 |
| 20260504234559 | 75 | 161 | 0.0 | 2.0 | 0.00 | 1.06 | 2.65 | 47 | 1008.1 |
| 20260504233106 | 76 | 150 | 0.0 | 4.0 | 0.00 | 1.06 | 2.65 | 46 | 1008.2 |
| 20260504231557 | 76 | 184 | 1.0 | 6.0 | 0.00 | 1.06 | 2.65 | 45 | 1008.3 |
| 20260504230104 | 77 | 96 | 1.0 | 9.0 | 0.00 | 1.06 | 2.65 | 45 | 1008.3 |
| 20260504224556 | 77 | 126 | 2.0 | 8.0 | 0.00 | 1.06 | 2.65 | 43 | 1008.3 |
| 20260504223100 | 78 | 184 | 4.0 | 11.0 | 0.00 | 1.06 | 2.65 | 44 | 1008.3 |
| 20260504221554 | 79 | 187 | 4.0 | 10.0 | 0.00 | 1.06 | 2.65 | 42 | 1008.3 |
| 20260504220053 | 79 | 121 | 1.0 | 9.0 | 0.00 | 1.06 | 2.65 | 44 | 1008.3 |
| 20260504214607 | 79 | 165 | 2.0 | 17.0 | 0.00 | 1.06 | 2.65 | 42 | 1008.3 |
| 20260504213109 | 79 | 146 | 3.0 | 13.0 | 0.00 | 1.06 | 2.65 | 40 | 1008.3 |
| 20260504211554 | 79 | 104 | 6.0 | 21.0 | 0.00 | 1.06 | 2.65 | 42 | 1008.2 |
| 20260504210050 | 80 | 155 | 2.0 | 11.0 | 0.00 | 1.06 | 2.65 | 43 | 1008.3 |
| 20260504204551 | 79 | 164 | 1.0 | 10.0 | 0.00 | 1.06 | 2.65 | 46 | 1008.4 |
| 20260504203047 | 80 | 190 | 3.0 | 11.0 | 0.00 | 1.06 | 2.65 | 44 | 1008.7 |
| 20260504201558 | 80 | 143 | 2.0 | 10.0 | 0.00 | 1.06 | 2.65 | 43 | 1008.8 |
| 20260504200044 | 79 | 149 | 2.0 | 17.0 | 0.00 | 1.06 | 2.65 | 42 | 1009.1 |
| 20260504194547 | 79 | 130 | 6.0 | 13.0 | 0.00 | 1.06 | 2.65 | 43 | 1009.3 |
| 20260504193037 | 79 | 165 | 2.0 | 13.0 | 0.00 | 1.06 | 2.65 | 45 | 1009.5 |
| 20260504191539 | 79 | 92 | 3.0 | 17.0 | 0.00 | 1.06 | 2.65 | 45 | 1009.8 |
| 20260504190033 | 79 | 126 | 4.0 | 11.0 | 0.00 | 1.06 | 2.65 | 47 | 1010.0 |
| 20260504184535 | 78 | 124 | 3.0 | 12.0 | 0.00 | 1.06 | 2.65 | 47 | 1010.1 |
| 20260504183030 | 78 | 237 | 3.0 | 12.0 | 0.00 | 1.06 | 2.65 | 47 | 1010.3 |
| 20260504181532 | 78 | 166 | 2.0 | 10.0 | 0.00 | 1.06 | 2.65 | 49 | 1010.4 |
| 20260504180025 | 78 | 282 | 2.0 | 9.0 | 0.00 | 1.06 | 2.65 | 47 | 1010.4 |
| 20260504174522 | 77 | 141 | 4.0 | 10.0 | 0.00 | 1.06 | 2.65 | 48 | 1010.6 |
| 20260504173019 | 77 | 138 | 2.0 | 10.0 | 0.00 | 1.06 | 2.65 | 49 | 1010.9 |
| 20260504171517 | 77 | 165 | 2.0 | 10.0 | 0.00 | 1.06 | 2.65 | 52 | 1011.0 |
| 20260504160105 | 73 | 223 | 1.0 | 7.0 | 0.00 | 1.12 | 2.65 | 57 | 1012.2 |